Location: Unspecified
(0.0000°N, 0.0000°E)
Time: 08:38:36
(UTC+00:00)

Vanguard 1 Rocket - Visible Passes

Search period start: 03 October 2023 00:00
Search period end: 13 October 2023 00:00
Orbit: 656 x 4219 km, 34.3° (Epoch: 02 October)

Date Brightness Start Highest point End Pass type
(mag) Time Alt. Az. Time Alt. Az. Time Alt. Az.
03 Oct 11.2 02:04:09 23° N 02:12:35 28° NNE 02:27:12 10° ENE visible
03 Oct 10.0 04:26:29 10° NW 04:47:09 57° NNE 04:57:55 10° ESE visible
03 Oct 10.3 19:24:24 10° W 19:35:51 47° NNW 19:55:48 11° NE visible
03 Oct 11.3 21:56:57 10° WNW 22:12:01 25° NNW 22:13:05 25° N visible
04 Oct 11.4 00:57:22 23° NNE 00:57:22 23° NNE 01:10:47 10° ENE visible
04 Oct 10.6 03:14:43 17° NNW 03:32:23 42° NNE 03:45:24 10° E visible
04 Oct 9.6 18:12:28 10° WSW 18:21:51 65° NNW 18:40:40 10° NE visible
04 Oct 11.0 20:41:34 10° WNW 20:54:40 29° NNW 21:05:40 21° NNE visible
04 Oct 11.6 23:18:26 10° NW 23:50:40 12° NE 23:52:45 10° NE visible
05 Oct 11.0 02:08:01 28° N 02:16:12 33° NNE 02:31:25 10° E visible
05 Oct 9.8 04:28:05 10° NW 04:49:47 72° NE 05:00:50 10° ESE visible
05 Oct 10.5 19:27:51 10° W 19:38:55 37° NNW 19:58:03 10° NE visible
05 Oct 11.4 22:01:35 10° NW 22:15:23 22° N 22:15:23 22° N visible
06 Oct 11.3 01:01:22 26° NNE 01:01:22 26° NNE 01:15:28 10° ENE visible
06 Oct 10.4 03:18:43 22° NW 03:35:18 52° NNE 03:48:44 10° ESE visible
06 Oct 9.9 18:15:29 10° WSW 18:24:37 50° NNW 18:42:13 10° NE visible
06 Oct 11.1 20:45:53 10° WNW 20:58:23 25° NNW 21:07:45 19° NNE visible
06 Oct 11.7 23:22:15 10° NW 23:54:46 13° NE 23:57:21 10° NE visible
07 Oct 10.8 02:12:06 34° N 02:19:28 39° NNE 02:35:16 10° E visible
07 Oct 9.7 04:29:50 10° NW 04:52:09 87° NE 05:03:30 10° SE visible
07 Oct 10.7 19:31:39 10° WNW 19:42:14 30° NNW 19:59:30 10° NE visible
07 Oct 11.4 22:06:06 10° NW 22:17:15 20° N 22:17:15 20° N visible
08 Oct 11.2 01:05:29 30° NNE 01:05:29 30° NNE 01:19:57 10° ENE visible
08 Oct 10.1 03:22:50 28° NW 03:37:57 64° NNE 03:51:46 10° ESE visible
08 Oct 10.2 18:18:47 10° W 18:27:36 38° NNW 18:43:39 10° NE visible
08 Oct 11.2 20:50:27 10° NW 21:02:21 21° N 21:09:27 18° NNE visible
08 Oct 11.7 23:25:27 10° NNW 23:58:50 14° NE 00:02:11 10° ENE visible
09 Oct 10.6 02:16:11 42° N 02:22:25 48° NNE 02:38:46 10° E visible
09 Oct 9.7 04:33:32 13° WNW 04:54:19 77° SW 05:05:58 10° SE visible
09 Oct 10.9 19:35:49 10° WNW 19:45:47 24° NNW 20:01:04 10° NNE visible
09 Oct 11.4 22:10:12 10° NW 22:18:48 19° N 22:18:48 19° N visible
10 Oct 11.0 01:09:29 35° NE 01:09:29 35° NE 01:24:04 10° E visible
10 Oct 10.0 03:26:50 34° NW 03:40:21 77° NE 03:54:31 10° ESE visible
10 Oct 10.4 18:22:26 10° WNW 18:30:48 29° NNW 18:44:59 10° NE visible
10 Oct 11.3 20:55:03 10° NW 21:06:32 19° N 21:10:53 18° NNE visible
11 Oct 11.6 00:02:44 16° ENE 00:02:44 16° ENE 00:06:57 10° ENE visible
11 Oct 10.4 02:20:04 52° N 02:25:05 57° NNE 02:41:57 10° ESE visible
11 Oct 9.8 04:37:24 16° WNW 04:56:21 63° SW 05:08:15 10° SE visible
11 Oct 11.0 19:40:20 10° NW 19:49:34 20° N 20:02:50 10° NNE visible
11 Oct 11.4 22:13:41 10° NNW 22:20:09 18° NNW 22:20:09 18° NNW visible
12 Oct 10.9 01:13:14 40° NE 01:13:14 40° NE 01:27:48 10° E visible
12 Oct 9.9 03:30:34 40° NW 03:42:31 89° SW 03:57:04 10° SE visible
12 Oct 10.6 18:26:29 10° WNW 18:34:12 23° NNW 18:46:16 10° NNE visible
12 Oct 11.3 20:59:23 10° NNW 21:10:49 18° N 21:12:10 18° N visible
